Lemoore NAS, CA

12:21 PM PDT on April 25, 2017 (GMT -0700)
Lemoore Naval Air Station

Weather History for KNLC - March, 2014

Change the Weather History Date:

Thursday, March 6, 2014

  Actual Average Record
Temperature  
Mean Temperature 68 °F -  
Max Temperature 77 °F 64 °F 77 °F (2007)
Min Temperature 57 °F 41 °F 28 °F (2017)
Cooling Degree Days 3    
Growing Degree Days 18 (Base 50)    
Moisture  
Dew Point 52 °F    
Average Humidity 63    
Maximum Humidity 81    
Minimum Humidity 36    
Precipitation  
Precipitation 0.00 in - - ()
Sea Level Pressure  
Sea Level Pressure 30.09 in    
Wind  
Wind Speed 12 mph (NNW)    
Max Wind Speed 23 mph    
Max Gust Speed 29 mph    
Visibility 7 miles    
Events Rain    
Averages and records for this station are not official NWS values.
T = Trace of Precipitation, MM = Missing Value Source: NWS Daily Summary

Daily Weather History Graph

Daily Weather History Graph

Search for Another Location

Airport or City:

Trip Planner

Search our weather history database for the weather conditions in past years. The results will help you decide how hot, cold, wet, or windy it might be!

Date:

Astronomy

Mar. 06, 2014 Rise Set
Actual Time 6:23 AM PST 5:59 PM PST
Civil Twilight 5:57 AM PST 6:25 PM PST
Nautical Twilight 5:27 AM PST 6:54 PM PST
Astronomical Twilight 4:57 AM PST 7:24 PM PST
Moon 9:44 AM PST (3/6) 11:59 PM PST (3/6)
Length of Visible Light 12h 27m
Length of Day
11h 36m
Waxing Crescent, 33% of the Moon is Illuminated
Mar 6
Waxing Crescent
Mar 8
First Quarter
Mar 16
Full
Mar 23
Last Quarter
Mar 30
New

Hourly Weather History & Observations

Time (PST) Temp. Dew Point Humidity Pressure Visibility Wind Dir Wind Speed Gust Speed Precip Events Conditions
12:56 AM 60.1 °F 53.1 °F 78% 30.07 in 4.0 mi South 8.1 mph - N/A   Haze
1:56 AM 62.1 °F 54.0 °F 75% 30.07 in 4.0 mi SSE 8.1 mph - N/A   Haze
2:56 AM 63.0 °F 55.0 °F 75% 30.05 in 3.0 mi SE 6.9 mph - N/A   Haze
3:56 AM 61.0 °F 54.0 °F 78% 30.04 in 3.0 mi South 4.6 mph - N/A   Haze
4:56 AM 63.0 °F 55.0 °F 75% 30.06 in 4.0 mi Calm Calm - N/A   Haze
5:56 AM 62.1 °F 55.0 °F 78% 30.08 in 3.0 mi North 8.1 mph - N/A   Haze
6:09 AM 61.0 °F 55.0 °F 81% 30.08 in 2.5 mi North 10.4 mph - N/A   Haze
6:37 AM 61.0 °F 55.0 °F 81% 30.09 in 1.5 mi North 9.2 mph - N/A   Haze
6:56 AM 61.0 °F 55.0 °F 81% 30.10 in 1.5 mi North 10.4 mph - N/A   Haze
7:42 AM 63.0 °F 57.0 °F 81% 30.12 in 1.0 mi North 16.1 mph - N/A   Haze
7:56 AM 64.0 °F 57.0 °F 78% 30.13 in 1.5 mi North 17.3 mph - N/A   Haze
8:25 AM 64.9 °F 57.0 °F 75% 30.13 in 8.0 mi NNW 16.1 mph - 0.00 in Rain Light Rain
8:56 AM 64.0 °F 55.9 °F 75% 30.14 in 10.0 mi NNW 18.4 mph - 0.00 in   Mostly Cloudy
9:56 AM 70.0 °F 55.0 °F 59% 30.13 in 10.0 mi NW 16.1 mph - N/A   Mostly Cloudy
10:56 AM 73.0 °F 55.0 °F 53% 30.13 in 10.0 mi NW 19.6 mph - N/A   Mostly Cloudy
11:56 AM 75.9 °F 53.1 °F 45% 30.11 in 10.0 mi NNW 18.4 mph - N/A   Scattered Clouds
12:56 PM 77.0 °F 54.0 °F 45% 30.09 in 10.0 mi NNW 18.4 mph 26.5 mph N/A   Scattered Clouds
1:56 PM 77.0 °F 50.0 °F 39% 30.06 in 10.0 mi NNW 19.6 mph 25.3 mph N/A   Mostly Cloudy
2:56 PM 75.0 °F 50.0 °F 41% 30.06 in 10.0 mi NNW 20.7 mph 28.8 mph N/A   Mostly Cloudy
3:56 PM 73.9 °F 46.0 °F 37% 30.06 in 10.0 mi North 19.6 mph 26.5 mph N/A   Mostly Cloudy
4:56 PM 71.1 °F 43.0 °F 36% 30.06 in 10.0 mi NNW 23.0 mph 28.8 mph N/A   Mostly Cloudy
5:56 PM 66.9 °F 45.0 °F 45% 30.08 in 10.0 mi NNW 20.7 mph 26.5 mph N/A   Mostly Cloudy
6:56 PM 64.9 °F 44.1 °F 47% 30.09 in 10.0 mi NNW 16.1 mph - N/A   Mostly Cloudy
7:56 PM 61.0 °F 44.1 °F 54% 30.10 in 10.0 mi NNW 13.8 mph - N/A   Partly Cloudy
8:56 PM 60.1 °F 45.0 °F 57% 30.12 in 10.0 mi NW 13.8 mph - N/A   Clear
9:56 PM 59.0 °F 46.9 °F 64% 30.13 in 10.0 mi NW 15.0 mph - N/A   Clear
10:56 PM 59.0 °F 46.9 °F 64% 30.12 in 10.0 mi NW 20.7 mph - N/A   Clear
11:56 PM 57.0 °F 46.0 °F 67% 30.11 in 10.0 mi NW 20.7 mph - N/A   Clear